www.pogodaiklimat.ru

Погода и климат >> Архив погоды >> Украина >> Кобеляки


ПОГОДА в Кобеляках

  • Прогноз погоды в Кобеляках
  • Монитор погоды в Кобеляках

АРХИВ ПОГОДЫ в Кобеляках

Время (UTC), дата Ветер
(напр.,м/с)
 
Видим.   Явления Облачность Т
(С)
Тd
(С)
f
(%)
Тe
(С)
Тes
(С)
Комфортность P
(гПа)
Po
(гПа)
Тmin
(С)
Tmax
(С)
R
(мм)
R24
(мм)
S
(см)
03 14.07 С 3 17 км ясно +13.1 +10.8 86 +12 +12 1010.0 995.9
06 14.07 СВ 2 23 км 1/0
[Ci fib]
+20.0 +12.5 62 +22 +31 комфорт 1010.0 996.3 +12.7
09 14.07 ЮЗ 2 25 км 3/1 1000 м
[Cu hum Ci fib]
+24.2 +10.1 41 +25 +37 комфорт 1009.0 995.5
12 14.07 З 2 25 км 3/1 1000 м
[Cu hum Ci]
+25.8 +6.4 29 +25 +35 комфорт 1008.0 994.5
15 14.07 СЗ 2 26 км 3/0
[Ci fib]
+25.6 +5.7 28 +25 +28 комфорт 1008.0 994.5
18 14.07 С 2 21 км 3/0
[Ci fib]
+22.0 +8.8 43 +23 +23 комфорт 1009.0 995.3 +26.9
21 14.07 СЗ 1 10 км ясно +17.0 +9.7 62 +18 +18 1009.0 995.1
00 15.07 СЗ 2 10 км ясно +15.5 +9.8 69 +15 +15 1009.0 995.0
03 15.07 С 2 20 км ясно +16.0 +10.3 69 +16 +17 1008.0 994.1
06 15.07 В 1 22 км 3/0
[Ci sp]
+22.6 +12.8 54 +25 +32 комфорт 1008.0 994.4 +14.1
09 15.07 СВ 2 25 км 1/1 1000 м
[Cu hum]
+26.4 +8.4 32 +26 +43 жарко 1007.0 993.6
12 15.07 С 2 23 км 5/4 600 м
[Cu hum Ci fib]
+27.0 +10.2 35 +28 +33 жарко 1006.0 992.6
15 15.07 СВ 1 23 км 9/4 1000 м
[Cu med, cong Cs]
+27.6 +11.2 36 +28 +28 жарко 1006.0 992.7
18 15.07 СЗ 3 20 км 9/6 600 м
[Cb calv Ac trans Cs]
+22.1 +12.1 53 +24 +24 комфорт 1007.0 993.4 +28.6
21 15.07 С 3 10 км 9/3 600 м
[Cb calv Ac trans Cs]
+18.8 +12.1 65 +20 +20 1007.0 993.2
00 16.07 З 2 10 км 9/0
[Ac trans Cs]
+17.0 +13.5 80 +17 +17 1007.0 993.2
03 16.07 З 3 8000 м дымка 9/0
[Ac As Cs]
+15.9 +14.1 89 +15 +15 1007.0 993.1
06 16.07 СЗ 3 8000 м дымка 9/9 600 м
[Sc]
+17.0 +14.3 84 +17 +17 1007.0 993.2 +15.9
09 16.07 СЗ 2 14 км 9/8 1000 м
[Sc Ac trans]
+19.9 +13.6 67 +22 +22 комфорт 1007.0 993.3
12 16.07 СЗ 1 20 км 9/8 600 м
[Cb calv Cs]
+24.2 +14.0 53 +27 +27 жарко 1006.0 992.5
15 16.07 С 4 17 км гроза без осадков 9/8 600 м
[Cb calv Ac trans]
+23.0 +15.1 61 +27 +27 душно 1007.0 993.5
18 16.07 СВ 2 12 км {гроза} 8/0
[Ac trans Cs]
+20.5 +15.7 74 +24 +24 комфорт 1007.0 993.3 +24.8
21 16.07 штиль 0 4000 м дымка ясно +16.4 +15.3 93 +16 +16 1008.0 994.1
00 17.07 З 2 4000 м дымка 1/0
[Ci sp]
+14.6 +13.6 94 +14 +14 1008.0 994.0
03 17.07 З 2 8000 м дымка ясно +13.8 +12.9 94 +13 +14 1007.0 993.0
06 17.07 З 2 19 км ясно +20.5 +11.7 57 +23 +31 комфорт 1007.0 993.3 +13.5
09 17.07 СЗ 3 24 км 9/9 600 м
[Cb cap]
+26.0 +10.6 38 +27 +27 жарко 1007.0 993.6
12 17.07 З 4 26 км 6/6 1000 м
[Cu med, cong]
+27.0 +8.9 32 +27 +31 жарко 1006.0 992.6
15 17.07 З 3 28 км 9/3 1000 м
[Cu hum Ci]
+26.0 +11.0 39 +27 +27 жарко 1006.0 992.6
18 17.07 З 1 25 км 3/0
[Ac lent]
+23.0 +14.8 60 +27 +27 душно 1007.0 993.4 +27.9
21 17.07 З 2 10 км 4/0
[Ac trans]
+16.9 +12.2 74 +17 +17 1008.0 994.1
00 18.07 З 2 10 км {ливн. осадки} 8/8 1000 м
[Sc]
+15.2 +13.2 88 +15 +15 1008.0 994.1 1
03 18.07 З 2 16 км ясно +12.8 +11.5 92 +12 +12 1009.0 994.9
06 18.07 З 3 30 км 1/1 1000 м
[Cu hum]
+17.6 +14.3 81 +18 +25 1009.0 995.2 +12.5 1
09 18.07 З 3 27 км 8/8 1000 м
[Cu hum]
+21.0 +12.1 57 +24 +24 комфорт 1009.0 995.3
12 18.07 ЮЗ 2 29 км 6/6 1000 м
[Cu hum]
+22.6 +10.7 47 +25 +30 комфорт 1010.0 996.4
15 18.07 З 3 30 км 4/4 1000 м
[Cu hum]
+23.4 +9.4 41 +25 +27 комфорт 1010.0 996.4
18 18.07 З 2 20 км ясно +20.5 +10.3 52 +23 +23 комфорт 1011.0 997.3 +24.4
21 18.07 З 1 10 км ясно +15.0 +10.0 72 +16 +16 1013.0 999.0
00 19.07 СЗ 1 10 км ясно +14.0 +10.0 77 +14 +14 1014.0 999.9
03 19.07 З 1 23 км ясно +13.0 +10.7 86 +13 +14 1015.0 1000.8
06 19.07 З 3 25 км 4/0
[Ci]
+19.7 +12.9 65 +22 +26 комфорт 1015.0 1001.2 +12.7
09 19.07 З 3 25 км 9/5 1000 м
[Cu hum Cs]
+23.6 +20.7 84 +29 +29 душно 1015.0 1001.4
12 19.07 Ю 3 23 км 8/3 600 м
[Cu hum Ac trans Ci sp]
+24.8 +22.7 88 +33 +33 очень
душно
1015.0 1001.5
15 19.07 ЮЗ 3 23 км 5/5 1000 м
[Cu hum]
+25.7 +23.9 90 +35 +36 очень
душно
1015.0 1001.5
18 19.07 З 1 24 км ясно +21.4 +12.5 57 +24 +24 комфорт 1016.0 1002.2 +26.4
21 19.07 Ю 1 10 км ясно +17.2 +11.2 68 +18 +18 1017.0 1003.0
00 20.07 ЮЗ 1 10 км ясно +15.8 +11.8 77 +17 +17 1018.0 1003.9
03 20.07 ЮЗ 1 18 км ясно +14.8 +12.5 86 +15 +16 1018.0 1003.9
06 20.07 З 1 24 км ясно +21.7 +16.0 70 +25 +35 комфорт 1019.0 1005.2 +14.7
09 20.07 З 3 28 км 8/8 1000 м
[Sc diur, vesp]
+25.0 +9.7 38 +26 +26 жарко 1019.0 1005.4
12 20.07 З 4 35 км 6/6 1000 м
[Cu hum]
+28.2 +7.9 28 +28 +31 жарко 1018.0 1004.5
15 20.07 З 2 30 км 1/1 1000 м
[Cu hum]
+28.6 +6.6 25 +28 +31 жарко 1018.0 1004.5
18 20.07 З 1 16 км 1/1 1000 м
[Sc]
+22.8 +13.0 54 +26 +26 жарко 1018.0 1004.3 +30.3
21 20.07 Ю 1 10 км ясно +19.2 +11.2 60 +21 +21 комфорт 1019.0 1005.1
00 21.07 ЮЗ 1 10 км 10 баллов +18.8 +12.5 67 +21 +21 комфорт 1019.0 1005.1

 

Местоположение метеостанции Кобеляки (Полтавская область, Украина): широта 49.15 долгота 34.20 высота над уровнем моря 118 м.

В архиве по умолчанию представлена погода в Кобеляках за последнюю неделю. Архивные данные за месяц целиком и за предыдущие месяцы, начиная с января 2011 года, Вы можете получить, выбрав интересующий диапазон дат из раскрывающегося списка и нажав кнопку "Ввод!".


*Определитесь, кто Вы:
робот инопланетянин человек

Внимание! Время в таблицах - всемирное. Для получения местного времени необходимо прибавить поправку, которая равна 2 ч.

Смотрите также архив погоды в соседних городах и на ближайших метеорологических станциях:

Погода в Полтаве (Полтавская область, Украина) (56 км)
Погода в Светловодске (Кировоградская область, Украина) (70 км)
Погода в Комиссаровке (Днепропетровская область, Украина) (83 км)
Погода в Днепре (Днепропетровская область, Украина) (83 км)
Погода в Веселом Подоле (Полтавская область, Украина) (85 км)
Погода в Губинихе (Днепропетровская область, Украина) (86 км)
Погода в Краснограде (Харьковская область, Украина) (94 км)
Погода в Коломаке (Харьковская область, Украина) (108 км)
Погода в Чигирине (Черкасская область, Украина) (112 км)
Погода в Знаменке (Кировоградская область, Украина) (122 км)

Пояснения к столбцам:

Ветер - указаны скорость ветра в м/с - средняя за 10 мин, порывы в срок и между сроками (в фигурных скобках) и направление, откуда дует ветер: С - северный, СВ - северо-восточный, В - восточный, ЮВ - юго-восточный, Ю - южный, ЮЗ - юго-западный, З - западный, СЗ - северо-западный.
Видимость - горизонтальная дальность видимости в метрах или километрах. При видимости от 1 до 10 км при отсутствии осадков обычно наблюдается дымка, при ухудшении видимости до 1 км и менее - туман. В сухую погоду видимость может ухудшаться дымом, пылью или мглою.
Явления - указаны атмосферные явления, наблюдавшиеся в срок или в последний час перед сроком; фигурными скобками обозначены явления, наблюдавшиеся между сроками (за 1-3 часа до срока); квадратными скобками обозначены град или гололедные отложения с указанием их диаметра в мм.
Облачность - указаны через наклонную черту общая и нижняя облачность в баллах и высота нижней границы облаков в метрах; квадратными скобками обозначены формы облаков: Ci - перистые, Cs - перисто-слоистые, Cc - перисто-кучевые, Ac - высококучевые, As - высокослоистые, Sc - слоисто-кучевые, Ns - слоисто-дождевые, Cu - кучевые, Cb - кучево-дождевые. Подробнее классификацию облаков см. в Атласе облаков (PDF).
T - Температура воздуха - температура, измеренная на высоте 2 м над землей.
Td - Температура точки росы - температура, при понижении до которой содержащийся в воздухе водяной пар достигнет насыщения.
f - Относительная влажность воздуха - влажноcть воздуха, измеренная на высоте 2 м над землей.
Te - Эффективная температура - температура, которую ощущает одетый по сезону человек в тени. Характеристика душности погоды. При расчете учитывается влияние влажности воздуха и скорости ветра на теплоощущения человека.
Tes - Эффективная температура на солнце - температура, которую ощущает человек, с поправкой на солнечный нагрев. Характеристика знойности погоды. Зависит от высоты солнца над горизонтом, облачности и скорости ветра. Ночью, в пасмурную погоду, а также при ветре 12 м/с и более поправка равна нулю.
P - Атмосферное давление - приведенное к уровню моря атмосферное давление.
Po - Атмосферное давление - измеренное на уровне метеостанции атмосферное давление.
Tmin - Минимальная температура - минимум температуры воздуха на высоте 2 м над землей.
Tmax - Максимальная температура - максимум температуры воздуха на высоте 2 м над землей.
R - Количество осадков - Количество выпавших осадков за период времени, мм. При наведении курсора мыши на число - период времени, за который выпало указанное количество осадков.
R24 - Количество осадков - Количество выпавших осадков за 24 часа, мм.
S - Снежный покров - Высота снежного покрова, см. При наведении курсора мыши на число - состояние снежного покрова и степень покрытия местности в баллах.